Oxford, NC

8:43 AM EST on February 22, 2018 (GMT -0500)
Henderson-Oxford

Weather History for KHNZ - November, 2011

Change the Weather History Date:

Thursday, November 10, 2011

  Actual Average (KTDF) Record (KTDF)
Temperature  
Mean Temperature 52 °F -  
Max Temperature 62 °F 64 °F 82 °F (1986)
Min Temperature 43 °F 39 °F 23 °F (1973)
Degree Days  
Heating Degree Days 12    
Growing Degree Days 2 (Base 50)    
Moisture  
Dew Point 46 °F    
Average Humidity 81    
Maximum Humidity 97    
Minimum Humidity 49    
Precipitation  
Precipitation 0.00 in - - ()
Sea Level Pressure  
Sea Level Pressure 29.88 in    
Wind  
Wind Speed 3 mph (NW)    
Max Wind Speed 13 mph    
Max Gust Speed 20 mph    
Visibility 7 miles    
Events Fog , Rain    
Averages and records for this station are not official NWS values.
T = Trace of Precipitation, MM = Missing Value Source: NWS Daily Summary

Daily Weather History Graph

Daily Weather History Graph

Search for Another Location

Airport or City:

Trip Planner

Search our weather history database for the weather conditions in past years. The results will help you decide how hot, cold, wet, or windy it might be!

Date:

Astronomy

Nov. 10, 2011 Rise Set
Actual Time 6:45 AM EST 5:09 PM EST
Civil Twilight 6:18 AM EST 5:36 PM EST
Nautical Twilight 5:47 AM EST 6:07 PM EST
Astronomical Twilight 5:17 AM EST 6:37 PM EST
Moon 4:57 PM EST (11/10) 6:35 AM EST (11/10)
Length of Visible Light 11h 17m
Length of Day
10h 23m
Full, 100% of the Moon is Illuminated
Nov 10
Full
Nov 10
Full
Nov 18
Last Quarter
Nov 25
New
Dec 2
First Quarter

Hourly Weather History & Observations

Time (EST) Temp. Windchill Dew Point Humidity Pressure Visibility Wind Dir Wind Speed Gust Speed Precip Events Conditions
12:15 AM 50.5 °F - 49.3 °F 95% 29.98 in 4.0 mi Calm Calm - N/A   Clear
12:35 AM 50.5 °F - 49.5 °F 96% 29.97 in 5.0 mi Calm Calm - N/A   Clear
12:55 AM 50.0 °F - 48.9 °F 96% 29.98 in 0.5 mi Calm Calm - N/A Fog Fog
1:15 AM 49.8 °F - 48.7 °F 96% 29.97 in 1.2 mi Calm Calm - N/A   Scattered Clouds
1:35 AM 49.5 °F - 48.4 °F 96% 29.96 in 3.0 mi Calm Calm - N/A   Mostly Cloudy
1:55 AM 49.6 °F - 48.6 °F 96% 29.95 in 5.0 mi Calm Calm - N/A   Scattered Clouds
2:15 AM 50.0 °F - 49.1 °F 97% 29.95 in 2.5 mi Calm Calm - N/A   Clear
2:35 AM 49.5 °F - 48.6 °F 97% 29.94 in 3.0 mi Calm Calm - N/A   Clear
2:55 AM 48.2 °F - 47.3 °F 97% 29.93 in 5.0 mi Calm Calm - N/A   Clear
3:15 AM 48.9 °F - 48.0 °F 97% 29.93 in 1.0 mi Calm Calm - N/A   Mist
3:35 AM 48.7 °F - 47.8 °F 97% 29.92 in 0.5 mi Calm Calm - N/A Fog Fog
3:55 AM 48.9 °F - 48.0 °F 97% 29.92 in 1.0 mi Calm Calm - N/A   Mist
4:15 AM 47.5 °F - 46.6 °F 97% 29.91 in 0.5 mi SW 3.5 mph - N/A Fog Fog
4:35 AM 46.6 °F - 45.7 °F 97% 29.91 in 0.5 mi Calm Calm - N/A Fog Fog
4:55 AM 46.6 °F - 45.7 °F 97% 29.90 in 0.5 mi Calm Calm - N/A Fog Fog
5:15 AM 47.5 °F - 46.6 °F 97% 29.89 in 0.2 mi Calm Calm - N/A Fog Fog
5:35 AM 46.6 °F - 45.7 °F 97% 29.89 in 0.2 mi Calm Calm - N/A Fog Fog
6:15 AM 46.4 °F - 45.5 °F 97% 29.89 in 0.5 mi Calm Calm - N/A Fog Fog
6:35 AM 43.9 °F - 43.0 °F 97% 29.90 in 0.5 mi Calm Calm - N/A Fog Fog
7:15 AM 46.0 °F - 45.1 °F 97% 29.89 in 0.2 mi Calm Calm - N/A Fog Fog
7:55 AM 49.1 °F - 48.2 °F 97% 29.90 in 3.0 mi Calm Calm - N/A   Clear
8:15 AM 50.9 °F - 50.0 °F 97% 29.90 in 7.0 mi Calm Calm - N/A   Clear
8:35 AM 53.8 °F - 52.9 °F 97% 29.90 in 10.0 mi West 3.5 mph - N/A   Clear
8:55 AM 55.2 °F - 54.3 °F 97% 29.90 in 10.0 mi Calm Calm - N/A   Clear
9:15 AM 57.4 °F - 54.0 °F 88% 29.89 in 10.0 mi Calm Calm - N/A   Clear
9:35 AM 59.4 °F - 52.7 °F 79% 29.89 in 10.0 mi NW 3.5 mph - N/A   Mostly Cloudy
9:55 AM 60.3 °F - 52.0 °F 74% 29.89 in 10.0 mi NW 5.8 mph - N/A   Overcast
10:15 AM 61.0 °F - 51.8 °F 72% 29.89 in 10.0 mi NNW 4.6 mph - N/A   Overcast
10:35 AM 60.6 °F - 50.7 °F 70% 29.90 in 10.0 mi NW 6.9 mph - N/A   Overcast
10:55 AM 61.0 °F - 50.7 °F 69% 29.89 in 10.0 mi WNW 4.6 mph - N/A   Overcast
11:15 AM 62.6 °F - 49.5 °F 62% 29.89 in 10.0 mi WNW 6.9 mph - N/A   Mostly Cloudy
11:35 AM 62.8 °F - 48.0 °F 59% 29.87 in 10.0 mi NW 9.2 mph 16.1 mph N/A   Overcast
11:55 AM 62.4 °F - 47.8 °F 59% 29.86 in 10.0 mi NW 8.1 mph - N/A   Scattered Clouds
12:15 PM 62.4 °F - 47.8 °F 59% 29.84 in 10.0 mi NNW 8.1 mph - N/A   Scattered Clouds
12:35 PM 62.1 °F - 47.3 °F 58% 29.83 in 10.0 mi North 9.2 mph - N/A   Mostly Cloudy
12:55 PM 61.5 °F - 46.4 °F 58% 29.84 in 10.0 mi NNW 10.4 mph 17.3 mph N/A   Overcast
1:15 PM 60.8 °F - 46.4 °F 59% 29.83 in 10.0 mi NNW 9.2 mph - N/A   Overcast
1:35 PM 59.5 °F - 45.9 °F 61% 29.83 in 10.0 mi NW 12.7 mph 19.6 mph N/A   Overcast
1:55 PM 57.2 °F - 45.0 °F 64% 29.84 in 10.0 mi NW 6.9 mph 16.1 mph N/A   Overcast
2:15 PM 54.9 °F - 43.9 °F 66% 29.84 in 7.0 mi NW 10.4 mph - N/A Rain Rain
2:35 PM 52.5 °F - 45.1 °F 76% 29.83 in 10.0 mi NW 6.9 mph - N/A Rain Light Rain
2:55 PM 51.8 °F - 45.5 °F 79% 29.84 in 10.0 mi NW 6.9 mph - N/A Rain Light Rain
3:15 PM 51.3 °F - 45.7 °F 81% 29.84 in 5.0 mi NW 8.1 mph - N/A   Haze
3:35 PM 50.5 °F - 45.3 °F 82% 29.83 in 7.0 mi NW 6.9 mph - N/A Rain Light Rain
3:55 PM 49.8 °F - 44.2 °F 81% 29.84 in 10.0 mi NW 8.1 mph - N/A Rain Light Rain
4:15 PM 49.3 °F - 43.9 °F 82% 29.85 in 10.0 mi NW 8.1 mph - N/A   Overcast
4:35 PM 48.6 °F - 44.6 °F 86% 29.83 in 3.0 mi NNW 5.8 mph - N/A   Drizzle
4:55 PM 48.2 °F - 45.3 °F 90% 29.82 in 10.0 mi North 5.8 mph - N/A   Overcast
5:15 PM 48.6 °F - 45.0 °F 87% 29.84 in 10.0 mi NW 3.5 mph - N/A   Overcast
5:35 PM 48.6 °F - 45.0 °F 87% 29.84 in 10.0 mi NW 4.6 mph - N/A   Overcast
5:55 PM 48.7 °F - 44.8 °F 86% 29.84 in 10.0 mi Calm Calm - N/A   Overcast
6:15 PM 48.6 °F - 44.8 °F 87% 29.84 in 10.0 mi North 3.5 mph - N/A   Overcast
6:35 PM 48.6 °F - 44.8 °F 87% 29.84 in 10.0 mi NNW 3.5 mph - N/A   Overcast
6:55 PM 48.9 °F - 44.2 °F 84% 29.85 in 10.0 mi NW 3.5 mph - N/A   Overcast
7:15 PM 49.1 °F - 42.8 °F 79% 29.85 in 10.0 mi NW 4.6 mph - N/A   Overcast
7:35 PM 49.3 °F - 39.7 °F 70% 29.85 in 10.0 mi NW 11.5 mph 19.6 mph N/A   Overcast
7:55 PM 49.3 °F - 35.1 °F 58% 29.85 in 10.0 mi NW 10.4 mph 18.4 mph N/A   Overcast
8:15 PM 48.9 °F - 32.5 °F 53% 29.86 in 10.0 mi NW 8.1 mph 18.4 mph N/A   Mostly Cloudy
8:35 PM 48.6 °F - 31.5 °F 52% 29.86 in 10.0 mi NW 11.5 mph - N/A   Mostly Cloudy
8:55 PM 48.2 °F - 30.6 °F 51% 29.87 in 10.0 mi NW 10.4 mph 17.3 mph N/A   Mostly Cloudy
9:15 PM 47.8 °F - 29.7 °F 49% 29.88 in 10.0 mi NW 9.2 mph - N/A   Scattered Clouds
9:35 PM 46.9 °F - 28.9 °F 50% 29.89 in 10.0 mi NW 6.9 mph - N/A   Clear
9:55 PM 46.0 °F 41.9 °F 28.4 °F 50% 29.90 in 10.0 mi NW 8.1 mph - N/A   Clear
10:15 PM 45.5 °F 41.8 °F 27.9 °F 50% 29.90 in 10.0 mi NW 6.9 mph - N/A   Scattered Clouds
10:35 PM 44.8 °F 42.4 °F 27.5 °F 51% 29.90 in 10.0 mi NW 4.6 mph - N/A   Scattered Clouds
10:55 PM 43.5 °F 41.9 °F 27.5 °F 53% 29.90 in 10.0 mi NW 3.5 mph - N/A   Clear
11:15 PM 42.8 °F 41.1 °F 27.5 °F 55% 29.90 in 10.0 mi WNW 3.5 mph - N/A   Clear
11:35 PM 42.4 °F 40.7 °F 27.5 °F 56% 29.90 in 10.0 mi WNW 3.5 mph - N/A   Clear
11:55 PM 41.9 °F - 27.5 °F 57% 29.90 in 10.0 mi Calm Calm - N/A   Clear